Regional Weather Roundup
Issued by NWS

Home | Current Version | Previous Version | Text Only | Print | Product List | Glossary On
Versions: 1 2 3 4 5 6 7 8 9 10 11 12 13 14 15 16 17 18 19 20 21 22 23 24 25 26 27 28 29 30 31 32 33 34 35 36 37 38 39 40 41 42 43 44 45 46 47 48 49 50
000
ASUS42 KFFC 281203
RWRGA
WEATHER ROUNDUP FOR GEORGIA
NATIONAL WEATHER SERVICE PEACHTREE CITY GA
800 AM EDT THU JUL 28 2016

NOTE: "FAIR" INDICATES FEW OR NO CLOUDS BELOW 12,000 FEET WITH NO
SIGNIFICANT WEATHER AND/OR OBSTRUCTIONS TO VISIBILITY.

* = USE WITH CAUTION. THE STATIONS MARKED WITH AN ASTERISK MAY NOT
REPORT WEATHER SUCH AS PRECIPITATION, FOG, OR THUNDER AND ARE NOT
QUALITY CONTROLLED BY NWS.

THE REMARK "TC" DENOTES TEMPERATURE READING IN DEGREES CELSIUS.

GAZ001>058-281300-
NORTH GEORGIA

CITY           SKY/WX    TMP DP  RH WIND       PRES   REMARKS
ATLANTA        MOSUNNY   75  70  84 SW8       30.05S
6HR MIN TEMP:  74; 6HR MAX TEMP:  78;

ATHENS         SUNNY     76  69  79 SW5       30.04R
6HR MIN TEMP:  73; 6HR MAX TEMP:  80;

CHAMBLEE       PTSUNNY   74  69  85 SW6       30.06R
6HR MIN TEMP:  73; 6HR MAX TEMP:  79;

PEACHTREE CITY SUNNY     73  69  87 W3        30.06S
6HR MIN TEMP:  71; 6HR MAX TEMP:  75;

ROME           CLOUDY    76  69  79 SW5       30.02R
6HR MIN TEMP:  72; 6HR MAX TEMP:  76;

WEST ATLANTA   MOSUNNY   73  68  84 SW7       30.05R
6HR MIN TEMP:  73; 6HR MAX TEMP:  77;

GAINESVILLE    CLOUDY    74  68  81 W12       30.08R
6HR MIN TEMP:  74; 6HR MAX TEMP:  78;

CARTERSVILLE   CLOUDY    75  70  84 S3        30.05R
6HR MIN TEMP:  73; 6HR MAX TEMP:  75;



CITY           SKY/WX    TMP DP  RH WIND       PRES   REMARKS
DALTON*        CLOUDY    73  72  94 SE5       30.02S
LAWRENCEVILLE* PTSUNNY   75  70  83 W12       30.04R
MARIETTA       MOSUNNY   74  69  85 SW7       30.05R
KENNESAW*      PTSUNNY   73  66  78 W9        30.03R
CANTON*        CLOUDY    73  64  73 W3        30.06S
BLAIRSVILLE*     N/A    N/A N/A N/A MISG      30.08R
$$

GAZ059>098-102>109-281300-
CENTRAL GEORGIA

CITY           SKY/WX    TMP DP  RH WIND       PRES   REMARKS
AUGUSTA-BUSH   SUNNY     79  71  76 SW6       30.02R
6HR MIN TEMP:  74; 6HR MAX TEMP:  82;

AUGUSTA-DANIEL SUNNY     82  70  66 VRB5      30.03S
6HR MIN TEMP:  81; 6HR MAX TEMP:  85;

COLUMBUS       SUNNY     75  70  84 W3        30.06R
6HR MIN TEMP:  73; 6HR MAX TEMP:  78;

MACON          SUNNY     77  70  79 W5        30.05R
6HR MIN TEMP:  73; 6HR MAX TEMP:  79;

ROBINS AFB     SUNNY     79  71  77 W8        30.04R


CITY           SKY/WX    TMP DP  RH WIND       PRES   REMARKS
LAGRANGE*      SUNNY     74  74 100 CALM      30.06F
MILLEDGEVILLE* SUNNY     77  73  88 CALM      30.04S
$$

GAZ099>101-110>166-281300-
SOUTH GEORGIA

CITY           SKY/WX    TMP DP  RH WIND       PRES   REMARKS
SAVANNAH       SUNNY     80  71  74 W8        30.04R
6HR MIN TEMP:  77; 6HR MAX TEMP:  82;

VALDOSTA       SUNNY     78  76  93 CALM      30.06S
6HR MIN TEMP:  74; 6HR MAX TEMP:  78;

ALMA           SUNNY     77  74  90 CALM      30.05S
6HR MIN TEMP:  73; 6HR MAX TEMP:  79;

ST SIMONS      SUNNY     82  74  76 W7        30.04S
6HR MIN TEMP:  79; 6HR MAX TEMP:  83;

ALBANY         SUNNY     75  73  93 SW3       30.08S
HUNTER AFB     SUNNY     80  75  84 W8        30.02R
MOODY AFB      SUNNY     79  73  84 W3        30.05S
BRUNSWICK      SUNNY     81  77  89 W5        30.06R


CITY           SKY/WX    TMP DP  RH WIND       PRES   REMARKS
BAINBRIDGE*    SUNNY     77  73  88 CALM      30.06S
MOULTRIE*      SUNNY     75  72  88 CALM      30.07S FOG
VIDALIA*       SUNNY     79  72  78 W3        30.06R
WAYCROSS*      SUNNY     80  78  92 CALM      30.06R
DOUGLAS*       SUNNY     77  73  88 CALM      30.07S
$$



USA.gov is the U.S. government's official web portal to all federal, state and local government web resources and services.